CAPE
27 54 43 0 0 0 0 0 0 0 0 0 0 0 0 0 0 0 0 0 0 0 2 9 17 16 16 0 0 0 0 0 0 0 0 0 0 4 6 0 0 1 1
77 80 43 21 1 0 0 0 0 0 0 0 0 0 0 0 0 0 0 0 0 0 6 22 21 8 17 0 0 0 0 0 0 0 0 0 1 2 1 1 4 9 4
240 116 126 42 19 0 0 0 0 0 0 0 0 0 0 0 0 0 0 0 0 0 0 26 40 16 21 0 0 0 0 0 0 0 0 0 0 0 0 0 0 1 2
209 242 81 71 18 0 0 0 0 0 0 0 0 0 0 0 0 0 0 0 0 0 0 16 25 15 14 1 0 0 0 0 0 0 0 0 0 0 0 0 0 1 2
234 185 161 80 1 0 0 0 0 0 0 0 0 0 0 0 0 0 0 0 0 0 0 0 0 0 0 0 0 0 0 0 0 0 0 0 0 0 0 0 1 3 5
41 158 195 54 0 0 0 0 0 0 0 0 0 0 0 0 0 0 0 0 0 0 0 0 0 0 0 0 0 0 0 0 0 0 0 0 0 0 0 0 0 3 8
119 258 165 60 0 0 0 0 0 0 0 0 0 0 0 0 0 0 0 0 0 0 0 0 0 0 0 0 0 0 0 0 0 0 0 0 0 0 1 4 11 9 5
70 176 61 33 0 0 0 0 0 0 0 0 0 0 0 0 0 0 0 0 0 0 0 0 0 0 0 0 0 0 0 0 0 0 0 0 0 0 1 4 4 1 1
188 137 88 31 0 0 0 0 0 0 0 0 0 0 0 0 0 0 0 0 0 0 0 0 0 0 0 0 0 0 0 0 0 0 0 0 0 0 0 0 0 0 1
194 173 96 47 3 0 0 0 0 0 0 0 0 0 0 0 0 0 0 0 0 0 0 0 0 0 0 0 0 0 0 0 0 0 0 0 0 0 0 0 0 0 1
212 162 76 25 0 0 0 0 0 0 0 0 0 0 0 0 0 0 0 0 0 0 0 0 0 0 0 0 0 0 0 0 0 0 0 0 0 0 0 0 0 0 0
147 107 0 2 0 0 0 0 0 0 0 0 0 0 0 0 0 0 0 0 0 0 0 0 0 0 0 0 0 0 0 0 0 0 0 0 0 0 0 0 0 0 0
50 38 1 0 0 0 0 0 0 0 0 0 0 0 0 0 0 0 0 0 0 0 0 0 0 0 0 0 0 0 0 0 0 0 0 0 0 0 0 0 0 0 0
35 1 0 0 0 0 0 0 0 0 0 0 0 0 0 0 0 0 0 0 0 0 0 0 0 0 0 0 0 0 0 0 0 0 0 0 0 0 0 0 0 0 0
11 0 0 0 0 0 0 0 0 0 0 0 0 0 0 0 0 0 0 0 0 0 0 0 0 0 0 0 0 0 0 0 0 0 0 0 0 0 0 0 0 0 0
1 0 0 0 0 0 0 0 0 0 0 0 0 0 0 0 0 0 0 0 0 0 0 0 0 0 0 0 0 0 0 0 0 0 0 0 0 0 0 0 0 0 0
0 0 0 0 0 0 0 0 0 0 0 0 0 0 0 0 0 0 0 0 0 0 0 0 0 0 0 0 0 0 0 0 0 0 0 0 0 0 0 0 0 0 0
0 0 0 0 0 0 0 0 0 0 0 0 0 0 0 0 0 0 0 0 0 0 0 0 0 0 0 0 0 0 0 0 0 0 0 0 0 0 0 0 0 0 0
0 0 0 0 0 0 0 0 0 0 0 0 0 0 0 0 0 0 0 0 0 0 0 0 0 0 0 0 0 0 0 0 0 0 0 0 0 0 0 0 0 0 0
0 0 0 0 0 0 0 0 0 0 0 0 0 0 0 0 0 0 0 0 0 0 0 0 0 0 0 0 0 0 0 0 0 0 0 0 0 0 0 0 0 0 0
0 0 0 0 0 0 0 0 0 0 0 0 0 0 0 0 0 0 0 0 0 0 0 0 0 0 0 0 0 0 0 0 0 0 0 0 0 0 0 0 0 0 0
0 0 0 0 0 0 0 0 0 0 0 0 0 0 0 0 0 0 0 0 0 0 0 0 0 0 0 0 0 0 0 0 0 0 0 0 0 0 0 0 0 0 0
0 0 0 0 0 0 0 0 0 0 0 0 0 0 0 0 0 0 0 0 0 0 0 0 0 0 0 0 0 0 0 0 0 0 0 0 0 0 0 0 0 0 0
0 0 0 0 0 0 0 0 0 0 0 0 0 0 0 0 0 0 0 0 0 0 0 0 0 0 0 0 0 2 0 0 0 0 0 0 0 0 0 0 0 0 0
0 0 0 0 0 0 0 0 0 0 0 0 0 0 0 0 0 0 0 0 0 0 0 0 0 0 0 0 0 0 0 0 0 0 0 0 0 0 0 0 0 0 0
0 0 0 0 0 0 0 0 0 0 0 0 0 0 0 0 0 0 0 0 0 0 0 0 0 0 0 0 0 1 0 4 0 0 0 0 0 0 0 0 0 0 0
CIN
-116 -112 -130 -28 -0 -0 -0 -0 -0 -0 -0 -0 -0 -0 -0 -0 -0 -0 -0 -0 -0 -0 -0 -0 -0 -0 -0 -0 -0 -0 -0 -0 -0 -0 -0 -0 -0 -1 -0 -0 -0 -0 -1
-87 -105 -73 -93 -76 -0 -0 -0 -0 -0 -0 -0 -0 -0 -0 -0 -0 -0 -0 -0 -0 -0 -0 -0 -0 -0 -0 -0 -0 -0 -0 -0 -0 -0 -0 -0 -0 -0 -1 -0 -0 -0 -0
-32 -32 -29 -36 -39 -0 -0 -0 -0 -0 -0 -0 -0 -0 -0 -0 -0 -0 -0 -0 -0 -0 -0 -1 -1 -0 -0 -0 -0 -0 -0 -0 -0 -0 -0 -0 -0 -0 -0 -0 -0 -0 -1
-16 -14 -19 -19 -26 -0 -0 -0 -0 -0 -0 -0 -0 -0 -0 -0 -0 -0 -0 -0 -0 -0 -0 -8 -8 -2 -1 -0 -0 -0 -0 -0 -0 -0 -0 -0 -0 -0 -0 -0 -0 -0 -0
-14 -14 -13 -23 -2 -0 -0 -0 -0 -0 -0 -0 -0 -0 -0 -0 -0 -0 -0 -0 -0 -0 -0 -0 -0 -0 -0 -0 -0 -0 -0 -0 -0 -0 -0 -0 -0 -0 -0 -0 -0 -0 -0
-22 -19 -24 -31 -0 -0 -0 -0 -0 -0 -0 -0 -0 -0 -0 -0 -0 -0 -0 -0 -0 -0 -0 -0 -0 -0 -0 -0 -0 -0 -0 -0 -0 -0 -0 -0 -0 -0 -0 -0 -1 -0 -1
-29 -18 -27 -29 -0 -0 -0 -0 -0 -0 -0 -0 -0 -0 -0 -0 -0 -0 -0 -0 -0 -0 -0 -0 -0 -0 -0 -0 -0 -0 -0 -0 -0 -0 -0 -0 -0 -0 -1 -1 -1 -0 -1
-46 -24 -34 -78 -0 -0 -0 -0 -0 -0 -0 -0 -0 -0 -0 -0 -0 -0 -0 -0 -0 -0 -0 -0 -0 -0 -0 -0 -0 -0 -0 -0 -0 -0 -0 -0 -0 -0 -0 -0 -0 -1 -1
-35 -26 -56 -83 -0 -0 -0 -0 -0 -0 -0 -0 -0 -0 -0 -0 -0 -0 -0 -0 -0 -0 -0 -0 -0 -0 -0 -0 -0 -0 -0 -0 -0 -0 -0 -0 -0 -0 -0 -0 -0 -0 -1
-29 -41 -77 -88 -52 -0 -0 -0 -0 -0 -0 -0 -0 -0 -0 -0 -0 -0 -0 -0 -0 -0 -0 -0 -0 -0 -0 -0 -0 -0 -0 -0 -0 -0 -0 -0 -0 -0 -0 -0 -0 -0 -0
-49 -37 -84 -90 -0 -0 -0 -0 -0 -0 -0 -0 -0 -0 -0 -0 -0 -0 -0 -0 -0 -0 -0 -0 -0 -0 -0 -0 -0 -0 -0 -0 -0 -0 -0 -0 -0 -0 -0 -0 -0 -0 -0
-72 -97 -0 -100 -0 -0 -0 -0 -0 -0 -0 -0 -0 -0 -0 -0 -0 -0 -0 -0 -0 -0 -0 -0 -0 -0 -0 -0 -0 -0 -0 -0 -0 -0 -0 -0 -0 -0 -0 -0 -0 -0 -1
-97 -119 -114 -0 -0 -0 -0 -0 -0 -0 -0 -0 -0 -0 -0 -0 -0 -0 -0 -0 -0 -0 -0 -0 -0 -0 -0 -0 -0 -0 -0 -0 -0 -0 -0 -0 -0 -0 -0 -0 -0 -0 -0
-99 -28 -22 -0 -0 -0 -0 -0 -0 -0 -0 -0 -0 -0 -0 -0 -0 -0 -0 -0 -0 -0 -0 -0 -0 -0 -0 -0 -0 -0 -0 -0 -0 -0 -0 -0 -0 -0 -0 -0 -0 -0 -0
-200 -34 -0 -0 -0 -0 -0 -0 -0 -0 -0 -0 -0 -0 -0 -0 -0 -0 -0 -0 -0 -0 -0 -0 -0 -0 -0 -0 -0 -0 -0 -0 -0 -0 -0 -0 -0 -0 -0 -0 -0 -0 -0
-35 -0 -0 -0 -0 -0 -0 -0 -0 -0 -0 -0 -0 -0 -0 -0 -0 -0 -0 -0 -0 -0 -0 -0 -0 -0 -0 -0 -0 -0 -0 -0 -0 -0 -0 -0 -0 -0 -0 -0 -0 -0 -0
-0 -0 -0 -0 -0 -0 -0 -0 -0 -0 -0 -0 -0 -0 -0 -0 -0 -0 -0 -0 -0 -0 -0 -0 -0 -0 -0 -0 -0 -0 -0 -0 -0 -0 -0 -0 -0 -0 -0 -0 -0 -0 -0
-0 -0 -0 -0 -0 -0 -0 -0 -0 -0 -0 -0 -0 -0 -0 -0 -0 -0 -0 -0 -0 -0 -0 -0 -0 -0 -0 -0 -0 -0 -0 -0 -0 -0 -0 -0 -0 -0 -0 -0 -0 -0 -0
-0 -0 -0 -0 -0 -0 -0 -0 -0 -0 -0 -0 -0 -0 -0 -0 -0 -0 -0 -0 -0 -0 -0 -0 -0 -0 -0 -0 -0 -0 -0 -0 -0 -0 -0 -0 -0 -0 -0 -0 -0 -0 -0
-0 -0 -0 -0 -0 -0 -0 -0 -0 -0 -0 -0 -0 -0 -0 -0 -0 -0 -0 -0 -0 -0 -9 -0 -0 -0 -0 -0 -0 -6 -0 -0 -0 -0 -0 -0 -0 -0 -0 -0 -0 -0 -0
-0 -0 -0 -0 -0 -0 -0 -0 -0 -0 -0 -0 -0 -0 -0 -0 -0 -0 -0 -0 -0 -0 -0 -0 -0 -0 -0 -0 -8 -0 -0 -0 -0 -0 -0 -0 -0 -0 -0 -0 -0 -0 -0
-0 -0 -0 -0 -0 -0 -0 -0 -0 -0 -0 -0 -0 -0 -0 -0 -0 -0 -0 -0 -0 -0 -0 -0 -0 -0 -0 -0 -0 -0 -0 -0 -0 -0 -0 -0 -0 -0 -0 -0 -0 -0 -0
-0 -0 -0 -0 -0 -0 -0 -0 -0 -0 -0 -0 -0 -0 -3 -0 -0 -0 -0 -0 -0 -0 -0 -0 -0 -0 -15 -16 -5 -0 -0 -0 -0 -0 -0 -0 -0 -0 -0 -0 -0 -0 -0
-0 -0 -0 -0 -0 -0 -0 -0 -0 -0 -0 -0 -0 -0 -0 -0 -0 -0 -0 -0 -0 -0 -0 -0 -0 -0 -0 -0 -2 -15 -0 -6 -0 -0 -0 -0 -0 -0 -0 -0 -0 -0 -0
-0 -0 -0 -0 -0 -0 -0 -0 -0 -0 -0 -0 -0 -0 -0 -0 -0 -0 -0 -0 -0 -0 -0 -0 -0 -0 -0 -0 -0 -0 -0 -0 -0 -0 -0 -0 -0 -0 -0 -0 -0 -0 -0
-0 -0 -0 -0 -0 -0 -0 -0 -0 -0 -0 -0 -0 -0 -0 -0 -0 -0 -0 -0 -0 -0 -0 -0 -0 -0 -0 -0 -0 -1 -0 -13 -0 -0 -0 -0 -0 -0 -0 -0 -0 -0 -0
Wind_Speed
9 10 10 6 4 9 20 10 8 9 9 12 15 16 17 19 18 19 19 18 18 16 14 14 14 15 15 17 18 18 19 20 21 23 23 24 25 28 28 26 27 28 28
10 9 5 3 18 26 9 6 8 9 9 12 15 15 17 18 19 18 19 19 18 16 14 12 13 13 13 15 17 17 18 19 21 23 24 25 27 28 28 28 28 29 30
6 1 5 26 26 21 5 9 10 8 9 11 13 14 16 17 19 20 17 17 18 18 15 13 12 12 12 14 15 15 18 20 21 23 24 25 27 29 30 30 31 32 32
5 20 27 27 20 7 6 5 8 9 11 10 11 13 13 15 17 19 16 16 18 18 18 14 13 12 12 13 13 15 18 20 22 24 25 26 28 29 31 32 33 34 35
29 29 28 18 2 4 9 10 11 11 8 9 9 10 12 13 14 15 16 16 16 16 16 15 14 13 12 12 12 14 18 20 22 24 25 27 29 30 32 33 34 36 37
31 29 21 4 1 4 10 9 9 11 7 9 11 9 10 10 11 13 14 16 15 13 14 13 12 12 11 11 12 14 17 19 21 24 26 28 30 31 33 35 36 37 39
31 29 21 0 1 5 4 5 9 7 11 12 14 18 15 13 12 12 13 13 13 12 11 12 11 12 12 11 12 14 16 18 20 22 25 28 30 32 34 36 36 38 39
28 23 7 2 3 7 6 2 6 10 11 11 18 19 23 19 15 14 15 13 15 12 13 11 12 13 11 11 13 14 16 18 20 22 24 26 29 30 32 35 37 39 40
19 14 4 3 3 8 4 3 4 8 10 12 12 18 21 20 18 19 16 14 14 14 14 15 16 14 13 13 14 15 15 17 19 22 24 25 26 30 34 36 37 38 40
14 7 5 4 4 5 6 5 7 9 13 13 14 14 18 17 23 27 20 17 16 15 16 17 18 16 15 16 15 15 14 16 19 21 23 24 27 31 34 35 37 38 40
6 6 7 6 6 7 7 7 8 10 12 14 14 15 17 17 20 21 24 21 20 19 18 18 18 18 16 17 17 16 15 18 19 20 21 24 27 31 33 36 38 39 40
7 9 10 8 5 7 11 10 10 12 12 12 15 16 15 18 19 19 23 24 27 24 21 21 21 18 17 19 19 18 18 18 18 20 22 25 28 30 34 36 37 38 38
12 13 12 10 10 11 11 12 12 10 12 15 13 14 16 18 20 20 23 27 29 27 24 23 22 21 21 20 21 19 18 19 19 20 22 25 27 30 33 35 35 35 37
8 12 11 5 8 10 8 7 10 13 13 12 13 14 16 17 19 22 24 27 31 29 26 27 26 24 24 24 22 19 20 19 20 21 23 25 27 30 32 33 33 34 37
5 5 7 6 7 7 7 9 11 12 10 13 13 14 17 18 20 22 25 27 27 31 31 30 29 26 26 24 22 20 20 19 20 22 23 25 27 29 31 30 31 32 35
4 4 5 6 8 8 9 10 12 10 11 13 15 15 17 18 20 23 28 26 25 28 34 30 28 27 25 25 23 21 20 20 21 21 23 25 27 28 28 28 28 29 33
5 5 6 6 7 9 10 12 11 11 12 14 15 21 20 21 25 30 29 26 27 29 33 31 28 27 27 27 27 22 20 21 22 23 24 24 25 26 27 26 27 28 30
5 5 6 8 10 12 12 11 10 11 13 14 16 17 16 23 30 28 28 27 28 26 30 35 32 30 29 29 28 26 25 25 25 25 24 24 24 26 27 27 27 28 28
5 7 7 9 11 11 10 10 11 12 14 13 14 15 22 27 26 28 29 30 29 29 29 32 35 33 33 31 32 31 30 29 27 27 25 23 24 27 28 28 30 28 28
7 7 10 11 11 11 10 10 12 12 14 13 14 17 22 24 26 29 32 30 29 30 31 33 35 36 35 34 33 34 35 32 32 28 24 22 23 26 27 30 27 27 29
9 11 11 12 12 11 10 10 10 11 12 13 17 19 23 22 27 30 32 29 29 31 32 35 37 37 38 38 37 36 36 35 32 27 24 23 24 27 27 28 29 31 29
12 13 13 12 11 11 8 8 10 11 13 17 21 20 20 25 28 29 29 29 28 33 35 36 39 40 41 39 38 38 37 35 35 27 25 25 23 27 27 28 30 27 22
11 12 11 10 10 9 8 9 10 13 17 19 19 20 25 26 29 32 32 35 35 35 35 38 41 42 42 41 40 40 38 36 34 27 25 27 26 26 26 27 26 22 24
11 10 10 9 10 9 9 10 13 16 17 19 21 23 25 27 30 34 37 39 40 40 40 41 41 42 42 41 41 39 38 36 33 27 22 27 23 24 26 24 22 21 27
10 10 10 10 11 11 11 12 14 17 19 20 22 25 29 32 33 37 40 44 47 46 42 41 41 42 42 43 42 39 35 32 30 26 22 21 22 25 25 22 19 23 25
9 10 11 10 11 13 13 13 15 16 20 23 26 28 30 32 35 38 41 44 47 47 48 49 45 42 40 39 37 32 30 28 25 26 22 24 26 24 26 20 20 20 28
Wind_Direction
115 104 98 79 42 269 227 290 339 334 348 351 358 9 20 17 37 34 32 34 36 36 40 36 37 35 35 32 26 22 19 14 9 5 3 359 354 347 345 347 346 344 343
114 110 70 62 239 201 281 5 347 314 324 1 8 16 16 19 24 33 29 26 29 26 25 28 26 28 29 26 19 15 10 8 2 357 353 350 347 347 347 347 343 340 337
101 64 277 216 191 153 1 304 305 332 10 10 14 21 23 21 23 15 24 25 21 17 20 20 20 16 17 14 10 11 2 358 354 352 349 348 343 340 339 337 335 333 332
233 236 209 207 158 311 317 330 321 333 333 359 14 26 34 23 17 17 26 21 14 13 13 18 17 9 5 3 5 1 355 352 349 345 344 343 341 339 337 335 333 330 327
211 210 215 232 42 319 303 307 313 322 350 8 17 24 24 17 17 22 21 17 13 10 13 16 14 8 4 1 358 354 349 346 344 342 340 338 336 335 334 332 330 328 326
222 199 195 126 119 313 301 310 318 325 350 350 350 359 1 4 10 11 11 8 11 13 12 9 6 3 359 355 351 346 344 344 344 340 337 334 334 334 332 329 327 326 324
216 193 178 210 228 307 316 321 326 328 332 338 336 336 339 340 345 351 355 358 0 5 7 2 358 353 349 345 342 340 340 341 342 339 337 334 333 332 329 328 328 326 324
194 183 163 204 255 298 312 307 320 323 320 328 321 328 327 335 336 339 340 340 343 348 348 349 346 343 342 341 337 334 333 334 336 336 335 333 332 332 330 328 327 325 324
180 176 236 246 237 293 298 261 304 315 311 315 317 324 328 332 343 341 332 331 332 336 337 336 334 333 334 330 328 328 328 330 331 331 331 330 330 329 328 327 326 325 323
185 190 213 244 225 280 292 285 301 313 315 304 315 316 325 330 332 334 338 330 327 320 320 324 328 325 322 324 321 319 322 323 325 326 328 329 329 329 328 327 325 324 323
209 231 250 258 269 278 293 292 299 305 302 306 312 321 324 324 329 330 330 334 328 320 315 315 317 318 323 321 320 318 316 317 320 323 325 327 328 328 327 326 325 323 322
244 257 282 277 269 288 298 297 297 305 303 308 309 317 317 321 324 322 323 324 327 331 321 315 312 309 313 316 316 312 311 313 315 318 321 323 325 326 326 325 324 324 323
274 273 270 287 289 299 298 302 304 304 309 301 307 309 313 319 324 325 325 324 324 327 327 328 327 312 310 310 313 312 308 308 310 313 316 320 323 324 325 325 325 325 323
190 186 190 229 296 299 294 292 304 303 304 303 303 308 309 314 323 326 323 322 320 322 325 322 326 323 313 311 310 306 307 303 307 310 315 318 320 322 324 324 324 324 323
195 200 222 254 285 294 288 296 300 298 295 304 303 309 314 316 321 329 332 330 322 318 319 322 320 320 319 320 313 307 306 303 304 308 312 315 318 321 323 323 324 323 324
239 244 243 264 290 295 301 301 304 302 306 308 311 313 323 323 328 330 327 324 321 318 316 321 321 322 320 318 315 307 303 302 301 303 307 312 317 320 321 321 322 323 324
263 262 273 283 291 299 304 306 303 302 305 314 326 307 325 319 325 326 324 320 316 317 313 317 318 317 315 314 315 308 302 300 301 301 306 311 316 319 319 319 320 321 322
272 270 283 295 303 305 304 302 302 306 313 314 317 316 321 323 322 324 324 322 321 317 315 314 317 314 311 311 310 306 302 301 299 299 302 308 313 316 317 318 318 318 318
277 294 298 303 308 311 309 307 311 312 320 313 322 318 318 323 323 326 325 323 320 318 316 314 313 315 313 311 308 305 302 299 300 299 298 301 310 316 318 318 317 318 318
298 296 303 307 311 314 315 317 320 322 323 321 322 320 323 324 324 327 327 323 322 321 319 315 314 314 314 314 311 307 304 301 298 301 298 301 308 315 317 320 321 320 320
308 309 309 313 315 318 319 321 322 321 321 319 323 322 324 326 325 323 324 323 321 320 319 317 314 314 314 313 310 309 305 303 299 296 297 298 307 315 318 321 320 320 320
312 314 315 319 322 325 325 330 328 329 328 326 326 326 327 326 326 328 328 326 322 322 320 319 317 316 314 313 311 308 305 304 300 298 295 294 304 311 316 320 321 320 320
320 322 325 329 331 335 337 337 338 333 330 329 330 329 328 329 330 332 332 331 330 329 326 324 319 318 316 316 314 310 306 302 297 295 294 293 304 306 315 321 322 321 321
324 328 334 337 338 335 335 335 333 333 332 332 332 334 335 335 334 332 330 328 327 326 325 323 320 318 318 318 314 309 304 300 297 290 287 293 301 305 317 320 321 324 323
330 333 335 337 336 335 332 332 334 333 334 336 337 335 334 332 332 332 330 327 326 326 327 325 323 321 318 315 311 310 306 302 297 291 284 285 300 308 317 321 322 325 326
336 338 337 339 341 338 338 337 335 337 335 335 335 335 335 334 333 333 331 330 328 328 329 328 328 327 327 325 320 312 304 298 296 300 296 295 297 309 316 323 326 331 325